Overview Statistics Trail Chart Weather Telemetry Raw packets
 

This is the latest recevied weather packets stored in our database for station/object W0WC. If no packets are shown the sender has not sent any weather packets the latest 10 day(s).

<< 17 18 19 20 21 22 23 >>
Time Temp. Humidity Pressure Rain* Wind** Luminosity Snow
1788571439 32.78° C 44% 1013.2 hPa 0 mm - 0 W/m² -
1788571135 32.78° C 44% 1013.3 hPa 0 mm - 0 W/m² -
1788570831 33.33° C 43% 1013.2 hPa 0 mm - 0 W/m² -
1788570527 33.33° C 42% 1013.4 hPa 0 mm - 0 W/m² -
1788570227 33.89° C 42% 1013.4 hPa 0 mm - 0 W/m² -
1788569923 34.44° C 41% 1013 hPa 0 mm - 0 W/m² -
1788569619 34.44° C 40% 1013 hPa 0 mm - 1 W/m² -
1788569314 35° C 39% 1013.2 hPa 0 mm - 2 W/m² -
1788569008 35° C 38% 1013.1 hPa 0 mm - 3 W/m² -
1788568704 35.56° C 38% 1013.1 hPa 0 mm - 6 W/m² -
1788568400 35.56° C 38% 1013.2 hPa 0 mm - 9 W/m² -
1788568095 35.56° C 38% 1012.9 hPa 0 mm - 12 W/m² -
1788567795 36.11° C 37% 1013.3 hPa 0 mm - 15 W/m² -
1788567490 36.11° C 37% 1012.9 hPa 0 mm - 19 W/m² -
1788567189 36.11° C 37% 1012.9 hPa 0 mm - 22 W/m² -
1788566885 36.67° C 36% 1012.9 hPa 0 mm - 25 W/m² -
1788566580 36.67° C 36% 1013.1 hPa 0 mm - 29 W/m² -
1788566275 36.67° C 35% 1013.2 hPa 0 mm - 30 W/m² -
1788565969 36.67° C 35% 1013.1 hPa 0 mm - 41 W/m² -
1788565675 37.22° C 34% 1013.2 hPa 0 mm - 58 W/m² -
1788565360 36.67° C 35% 1013 hPa 0 mm - 64 W/m² -
1788565056 37.22° C 36% 1013 hPa 0 mm - 55 W/m² -
1788564752 37.22° C 35% 1013.1 hPa 0 mm - 50 W/m² -
1788564448 37.22° C 35% 1013.1 hPa 0 mm - 57 W/m² -
1788564144 37.78° C 34% 1013.1 hPa 0 mm - 100 W/m² -

* Rain latest hour (hover to see other rain measurements)
** Current wind speed in m/s (hover to see current wind gust speed)